Weather in Semendyayevo

Russia / Tver Oblast     57°18′18″N   38°13′19″E
temp.,
°C
wind,
m/s
gust,
m/s
humid.,
%
clouds,
%
prec.,
mm/h
press.,
hPa
HPBL,
m
14 april, wed
wed1400:00+11sse3117058 0.0 1021197
03:00+10s413675 0.0 1021304
06:00+10sse412725 0.0 1020262
09:00+14s5146383 0.0 1019605
12:00+18ssw6105391 0.0 10191268
15:00+19ssw5948100 0.0 10181789
18:00+17s2560100 0.0 1017122
21:00+12s286469 0.0 1018150
15 april, thu
thu1500:00+10ssw116867 0.0 101811
03:00+8nne3694100 0.0 1019155
06:00+7nne3896100 0.0 1019292
09:00+9nne4888100 0.0 1020468
12:00+10ne5778100 0.0 1021682
15:00+10ne5876100 0.0 1022796
18:00+8ne51179100 0.0 1023768
21:00+6ne61383100 0.0 1024665
16 april, fri
fri1600:00+5ene61483100 0.0 1024599
03:00+5ene51480100 0.0 1025579
06:00+4ene51483100 0.0 1025535
09:00+6ene6116797 0.0 1026558
12:00+10ene685468 0.0 1027877
15:00+12ene6848100 0.0 10261102
18:00+10ene51045100 0.0 1027972
21:00+7ene4135480 0.0 1028513
17 april, sat
sat1700:00+5ene4136057 0.0 1029445
03:00+3ene4136872 0.0 1030374
06:00+2ene413705 0.0 1031388
09:00+7e510485 0.0 1031682
12:00+11ene58379 0.0 10311171
15:00+12ene57355 0.0 10301382
18:00+11ene47435 0.0 10301080
21:00+6ne36645 0.0 1030106
18 april, sun
sun1800:00+4ene38730 0.0 1031153
03:00+3ene38795 0.0 1032152
06:00+2ene38800 0.0 1032155
09:00+8ene36570 0.0 1032499
12:00+12ene46435 0.0 10311604
15:00+13e46385 0.0 10311855
18:00+12ene36477 0.0 1030795
21:00+7ne226789 0.0 103140